When you browse on this site, cookies collect data to enhance your experience and personalize the content and advertising you see.
Visit our Privacy Policy to learn more. By continuing to use the site, you agree to this use of cookies and data.

Hourly Weather Rapperswil

Today, 11 July, Saturday

Time Temperature Precipitation Wind Pressure Humidity
00:00 +19°C° 1.9 mm 2 mps 724 mmHg 97%
01:00 +18°C° 1.9 mm 2 mps 724 mmHg 98%
02:00 +18°C° 5.1 mm 2 mps 724 mmHg 98%
03:00 +18°C° 5.1 mm 1 mps 723 mmHg 98%
04:00 +16°C° 5.1 mm 1 mps 723 mmHg 98%
05:00 +16°C° 1.8 mm 1 mps 724 mmHg 97%
06:00 +16°C° 1.8 mm 1 mps 724 mmHg 97%
07:00 +15°C° 1.8 mm 0 mps 724 mmHg 96%
08:00 +16°C° 0.5 mm 0 mps 725 mmHg 93%
09:00 +17°C° 0.5 mm 0 mps 725 mmHg 90%
10:00 +20°C° 0.5 mm 1 mps 725 mmHg 87%
11:00 +20°C° 0.5 mm 1 mps 726 mmHg 84%
12:00 +21°C° 0.5 mm 1 mps 726 mmHg 81%
13:00 +21°C° 0.5 mm 2 mps 726 mmHg 78%
14:00 +21°C° 0.6 mm 2 mps 726 mmHg 79%
15:00 +21°C° 0.6 mm 2 mps 726 mmHg 79%
16:00 +20°C° 0.6 mm 2 mps 726 mmHg 80%
17:00 +20°C° 0.3 mm 2 mps 726 mmHg 83%
18:00 +19°C° 0.3 mm 2 mps 726 mmHg 86%
19:00 +19°C° 0.3 mm 1 mps 726 mmHg 89%
20:00 +18°C° 0 mm 1 mps 727 mmHg 91%
21:00 +16°C° 0 mm 1 mps 727 mmHg 93%
22:00 +14°C° 0 mm 1 mps 727 mmHg 95%
23:00 +14°C° 0 mm 1 mps 727 mmHg 95%

Tomorrow, 12 July, Sunday

Time Temperature Precipitation Wind Pressure Humidity
00:00 +13°C° 0 mm 1 mps 727 mmHg 94%
01:00 +13°C° 0 mm 1 mps 727 mmHg 94%
02:00 +13°C° 0 mm 1 mps 727 mmHg 94%
03:00 +12°C° 0 mm 1 mps 727 mmHg 94%
04:00 +12°C° 0 mm 1 mps 727 mmHg 94%
05:00 +13°C° 0 mm 1 mps 727 mmHg 92%
06:00 +14°C° 0 mm 1 mps 727 mmHg 90%
07:00 +15°C° 0 mm 1 mps 727 mmHg 88%
08:00 +18°C° 0 mm 1 mps 727 mmHg 79%
09:00 +19°C° 0 mm 2 mps 727 mmHg 70%
10:00 +21°C° 0 mm 2 mps 727 mmHg 61%
11:00 +22°C° 0 mm 3 mps 727 mmHg 58%
12:00 +24°C° 0 mm 3 mps 727 mmHg 54%
13:00 +25°C° 0 mm 3 mps 727 mmHg 51%
14:00 +25°C° 0 mm 3 mps 727 mmHg 53%
15:00 +25°C° 0 mm 3 mps 727 mmHg 54%
16:00 +24°C° 0 mm 3 mps 727 mmHg 56%
17:00 +22°C° 0 mm 3 mps 727 mmHg 62%
18:00 +21°C° 0 mm 3 mps 727 mmHg 68%
19:00 +20°C° 0 mm 2 mps 727 mmHg 74%
20:00 +18°C° 0 mm 2 mps 727 mmHg 79%
21:00 +16°C° 0 mm 1 mps 727 mmHg 85%
22:00 +15°C° 0 mm 1 mps 727 mmHg 91%
23:00 +14°C° 0 mm 1 mps 727 mmHg 91%

Day after tomorrow, 13 July, Monday

Time Temperature Precipitation Wind Pressure Humidity
00:00 +14°C° 0 mm 1 mps 727 mmHg 92%
01:00 +14°C° 0 mm 1 mps 726 mmHg 93%
02:00 +13°C° 0 mm 1 mps 726 mmHg 93%
03:00 +12°C° 0 mm 0 mps 726 mmHg 93%
04:00 +12°C° 0 mm 0 mps 726 mmHg 94%
05:00 +13°C° 0 mm 0 mps 726 mmHg 90%
06:00 +14°C° 0 mm 0 mps 726 mmHg 86%
07:00 +16°C° 0 mm 0 mps 726 mmHg 83%
08:00 +19°C° 0 mm 1 mps 726 mmHg 77%
09:00 +21°C° 0 mm 1 mps 726 mmHg 70%
10:00 +23°C° 0 mm 1 mps 726 mmHg 64%
11:00 +24°C° 0.2 mm 2 mps 726 mmHg 62%
12:00 +25°C° 0.2 mm 2 mps 725 mmHg 60%
13:00 +26°C° 0.2 mm 2 mps 725 mmHg 58%
14:00 +26°C° 0.3 mm 2 mps 725 mmHg 59%
15:00 +26°C° 0.3 mm 2 mps 725 mmHg 60%
16:00 +25°C° 0.3 mm 2 mps 724 mmHg 61%
17:00 +24°C° 0.2 mm 2 mps 724 mmHg 67%
18:00 +23°C° 0.2 mm 2 mps 724 mmHg 73%
19:00 +22°C° 0.2 mm 1 mps 724 mmHg 79%
20:00 +20°C° 0 mm 1 mps 724 mmHg 84%
21:00 +18°C° 0 mm 1 mps 724 mmHg 88%
22:00 +16°C° 0 mm 1 mps 724 mmHg 92%
23:00 +15°C° 0 mm 1 mps 724 mmHg 92%

14 July, Tuesday

Time Temperature Precipitation Wind Pressure Humidity
00:00 +15°C° 0 mm 1 mps 724 mmHg 92%
01:00 +14°C° 0 mm 1 mps 724 mmHg 92%
02:00 +13°C° 0 mm 0 mps 724 mmHg 92%
03:00 +13°C° 0 mm 0 mps 723 mmHg 92%
04:00 +13°C° 0 mm 0 mps 723 mmHg 92%
05:00 +14°C° 0 mm 0 mps 723 mmHg 90%
06:00 +15°C° 0 mm 0 mps 723 mmHg 88%
07:00 +16°C° 0 mm 0 mps 724 mmHg 85%
08:00 +18°C° 0 mm 0 mps 724 mmHg 78%
09:00 +22°C° 0 mm 1 mps 724 mmHg 70%
10:00 +24°C° 0 mm 1 mps 724 mmHg 62%
11:00 +25°C° 0.1 mm 1 mps 724 mmHg 59%
12:00 +25°C° 0.1 mm 1 mps 723 mmHg 56%
13:00 +26°C° 0.1 mm 2 mps 723 mmHg 53%
14:00 +26°C° 0.3 mm 2 mps 723 mmHg 57%
15:00 +25°C° 0.3 mm 1 mps 723 mmHg 60%
16:00 +25°C° 0.3 mm 1 mps 723 mmHg 63%
17:00 +23°C° 0.5 mm 1 mps 723 mmHg 71%
18:00 +21°C° 0.5 mm 2 mps 723 mmHg 79%
19:00 +20°C° 0.5 mm 2 mps 723 mmHg 86%
20:00 +19°C° 0.3 mm 1 mps 723 mmHg 88%
21:00 +18°C° 0.3 mm 1 mps 723 mmHg 90%
22:00 +16°C° 0.3 mm 1 mps 723 mmHg 92%
23:00 +16°C° 0 mm 1 mps 723 mmHg 93%

15 July, Wednesday

Time Temperature Precipitation Wind Pressure Humidity
00:00 +16°C° 0 mm 1 mps 723 mmHg 94%
01:00 +15°C° 0 mm 1 mps 723 mmHg 94%
02:00 +15°C° 0 mm 1 mps 723 mmHg 94%
03:00 +15°C° 0 mm 1 mps 723 mmHg 94%
04:00 +15°C° 0 mm 1 mps 723 mmHg 94%
05:00 +16°C° 0 mm 1 mps 723 mmHg 93%
06:00 +18°C° 0 mm 1 mps 723 mmHg 91%
07:00 +18°C° 0 mm 1 mps 724 mmHg 90%
08:00 +20°C° 0 mm 1 mps 724 mmHg 82%
09:00 +20°C° 0 mm 2 mps 724 mmHg 73%
10:00 +21°C° 0 mm 2 mps 724 mmHg 65%
11:00 +21°C° 0 mm 2 mps 724 mmHg 66%
12:00 +20°C° 0 mm 2 mps 724 mmHg 68%
13:00 +20°C° 0 mm 2 mps 724 mmHg 70%
14:00 +21°C° 0 mm 1 mps 723 mmHg 71%
15:00 +21°C° 0 mm 1 mps 723 mmHg 72%
16:00 +21°C° 0 mm 1 mps 723 mmHg 74%
17:00 +21°C° 0 mm 1 mps 723 mmHg 75%
18:00 +22°C° 0 mm 1 mps 723 mmHg 76%
19:00 +22°C° 0 mm 1 mps 724 mmHg 77%
20:00 +21°C° 0 mm 1 mps 724 mmHg 79%
21:00 +20°C° 0 mm 1 mps 725 mmHg 80%
22:00 +19°C° 0 mm 1 mps 725 mmHg 81%
23:00 +19°C° 0 mm 1 mps 725 mmHg 81%

16 July, Thursday

Time Temperature Precipitation Wind Pressure Humidity
00:00 +18°C° 0 mm 1 mps 725 mmHg 81%
01:00 +16°C° 0 mm 0 mps 725 mmHg 81%
02:00 +16°C° 0 mm 0 mps 725 mmHg 82%
03:00 +16°C° 0 mm 0 mps 725 mmHg 83%
04:00 +15°C° 0 mm 0 mps 725 mmHg 83%
05:00 +16°C° 0 mm 0 mps 725 mmHg 84%
06:00 +16°C° 0 mm 0 mps 725 mmHg 84%
07:00 +18°C° 0 mm 1 mps 725 mmHg 84%
08:00 +19°C° 0 mm 1 mps 725 mmHg 81%
09:00 +19°C° 0 mm 1 mps 725 mmHg 78%
10:00 +20°C° 0 mm 1 mps 726 mmHg 75%
11:00 +21°C° 0 mm 1 mps 725 mmHg 73%
12:00 +21°C° 0 mm 1 mps 725 mmHg 71%
13:00 +22°C° 0 mm 1 mps 725 mmHg 68%
14:00 +22°C° 0 mm 1 mps 725 mmHg 67%
15:00 +23°C° 0 mm 1 mps 725 mmHg 65%
16:00 +23°C° 0 mm 2 mps 725 mmHg 64%
17:00 +22°C° 0 mm 1 mps 725 mmHg 69%
18:00 +22°C° 0 mm 1 mps 725 mmHg 74%
19:00 +21°C° 0 mm 1 mps 725 mmHg 80%
20:00 +19°C° 0 mm 1 mps 725 mmHg 83%
21:00 +18°C° 0 mm 1 mps 725 mmHg 86%
22:00 +15°C° 0 mm 0 mps 725 mmHg 89%
23:00 +14°C° 0 mm 0 mps 725 mmHg 90%
Show more